Location: Ocean City
(38.3360°N, 75.0850°W)
Time: 15:53:08
(UTC-05:00)

Explorer 11/Cluster Stage 4 - Pass Details

Date: 21 November 2019
Orbit: 467 x 1259 km, 28.8° (Epoch: 09 December)

Event Time Altitude Azimuth Distance (km) Brightness Sun altitude
Rises 19:34:13 0° 241° (WSW) 2,987 10.4 -33.1°
Reaches altitude 10° 19:36:37 10° 230° (SW) 2,193 9.4 -33.6°
Enters shadow 19:38:36 21° 212° (SSW) 1,675 8.5 -34.0°
Maximum altitude 19:41:09 30° 170° (S) 1,438 - -34.5°
Drops below altitude 10° 19:46:38 10° 111° (ESE) 2,683 - -35.6°
Sets 19:49:53 0° 102° (ESE) 3,776 - -36.2°
